Regional Weather Roundup
Issued by NWS

Home | Current Version | Previous Version | Text Only | Print | Product List | Glossary Off
Versions: 1 2 3 4 5 6 7 8 9 10 11 12 13 14 15 16 17 18 19 20 21 22 23 24 25 26 27 28 29 30 31 32 33 34 35 36 37 38 39 40 41 42 43 44 45 46 47 48 49 50

173
ASUS43 KLOT 182304
RWRIL

ILLINOIS REGIONAL WEATHER ROUNDUP
NATIONAL WEATHER SERVICE CHICAGO/ROMEOVILLE IL
600 PM CDT WED OCT 18 2017

NOTE: "FAIR" INDICATES FEW OR NO CLOUDS BELOW 12,000 FEET WITH NO
SIGNIFICANT WEATHER AND/OR OBSTRUCTIONS TO VISIBILITY.

* THESE STATIONS ARE NOT UNDER NWS QUALITY CONTROL. THEY ALSO MAY NOT
  REPORT WEATHER SUCH AS PRECIPITATION OR FOG.

ILZ001-002-007-009-015-016-024-190000-
NORTHWEST ILLINOIS

CITY           SKY/WX    TMP DP  RH WIND       PRES   REMARKS
MOLINE         CLEAR     70  43  37 S7        29.98S
STERLING*      CLEAR     67  46  47 VRB3        N/A
SAVANNA*       CLEAR     67  45  44 S9        29.98S
$$

ILZ003-004-008-010-011-017-018-190000-
NORTH CENTRAL ILLINOIS

CITY           SKY/WX    TMP DP  RH WIND       PRES   REMARKS
ROCKFORD       PTCLDY    66  42  41 SW10      30.02R
FREEPORT*      CLEAR     65  44  45 S9        30.00S
ROCHELLE*      CLEAR     65  42  42 S9        30.03R
DE KALB*       CLEAR     65  43  44 S14       30.03R
PERU*          CLEAR     64  43  46 SW8       30.04R
$$

ILZ005-006-012>014-019>023-190000-
NORTHEAST ILLINOIS

CITY           SKY/WX    TMP DP  RH WIND       PRES   REMARKS
CHICAGO-OHARE  PTCLDY    68  41  37 S15       30.01S
CHICAGO-MIDWAY PTCLDY    69  40  34 S13       30.02F
AURORA         CLEAR     67  41  38 S13       30.03R
LANSING*       CLEAR     65  44  45 S13G18    30.05F
JOLIET*        CLEAR     68  42  39 S10       30.04S
WAUKEGAN       CLEAR     66  42  41 SW13      29.99R
DUPAGE AIRPORT CLEAR     66  43  43 S12       30.01S
KANKAKEE*      CLEAR     66  41  40 S9        30.08S
WHEELING       CLEAR     69  41  36 S17G24    30.02S
MORRIS*        CLEAR     67  41  38 S10       30.03S
NORTHERLY ISL    N/A     68  37  32 S13         N/A
$$

LMZ740>746-190000-
SOUTHERN LAKE MICHIGAN

STATION/POSITION SKY/WX   TEMP    WIND        PRES    VSBY  WAVE
                          AIR SEA DIR/SP/G                  HT/PER
                          (F)     (DEG/KT/KT) (MB)    (MI)  (FT/S)
SOUTHERN BUOY              63 61  180/ 21/ 25 1015.6          4/ 5
WILMETTE HARBOR            66 58  190/ 16/ 21   N/A           3/ 4
HARRISON CRIB              69     190/ 23/ 26   N/A
BURNHAM HARBOR             69     190/ 15/ 21   N/A
CALUMET HARBOR             69     190/  9/ 14 1016.3F
BURNS HARBOR               67     190/ 12/ 17 1017.9S
MICHIGAN CITY              67     180/ 12/ 17   N/A
MICHIGAN CITY 6N           64 58  200/ 12/ 16   N/A           2/ 3
ST. JOSEPH                 63 58  200/ 12/ 14 1017.7F         3/ 4
$$

ILZ025>027-034>036-040-047-049-050-058-095>099-190000-
WEST-CENTRAL ILLINOIS

CITY           SKY/WX    TMP DP  RH WIND       PRES   REMARKS
QUINCY         CLEAR     69  41  36 S10       30.03S
GALESBURG*     CLEAR     67  45  45 S8        30.03S
MACOMB*        CLEAR     68  41  36 S8        30.04F
JACKSONVILLE*  CLEAR     68  44  42 S8        30.07S
PITTSFIELD*    CLEAR     69  44  40 S6        30.07S
$$

ILZ028>032-037-038-041>044-048-051>054-059>061-190000-
CENTRAL ILLINOIS

CITY           SKY/WX    TMP DP  RH WIND       PRES   REMARKS
PONTIAC        CLEAR     67  43  41 S13       30.07R
BLOOMINGTON    CLEAR     64  45  49 S13       30.08S
DECATUR        CLEAR     66  43  43 S12       30.10R
PEORIA         CLEAR     67  43  41 SW12      30.04S
LACON*         CLEAR     67  44  43 S7        30.03S
LINCOLN*       CLEAR     69  45  42 S7        30.07S
SPRINGFIELD    CLEAR     70  45  40 S10       30.08R
TAYLORVILLE    CLEAR     67  44  43 S8        30.10R
$$

ILZ033-039-045-046-055>057-062-063-190000-
EAST-CENTRAL ILLINOIS

CITY           SKY/WX    TMP DP  RH WIND       PRES   REMARKS
CHAMPAIGN      CLEAR     67  42  40 S14       30.10F
DANVILLE*      CLEAR     64  44  48 S13       30.10S
RANTOUL*       CLEAR     66  46  48 S10       30.10S
MATTOON        CLEAR     66  48  52 S9        30.11F
PARIS*         CLEAR     63  46  55 S8        30.14S
$$

ILZ079-100>102-190000-
SOUTHWEST ILLINOIS

CITY           SKY/WX    TMP DP  RH WIND       PRES   REMARKS
CAHOKIA*       CLEAR     73  43  33 S7        30.09S
SPARTA*        CLEAR     69  47  44 S12       30.13S
$$

ILZ064>066-069>071-074>076-080>082-084>086-088>090-092>094-190000-
SOUTH-CENTRAL ILLINOIS

CITY           SKY/WX    TMP DP  RH WIND       PRES   REMARKS
CARBONDALE     PTCLDY    68  48  48 S9        30.15S
EFFINGHAM*     CLEAR     67  46  45 SE6       30.14S
MARION         PTCLDY    68  48  49 S12       30.16F
MT. VERNON     CLEAR     66  48  52 S8        30.15S
CENTRALIA*     CLEAR     68  50  51 S9        30.13S
SALEM*         CLEAR     69  46  43 S9        30.13S
METROPOLIS*    CLEAR     68  49  49 S5        30.18S
$$

ILZ067-068-072-073-078-083-087-091-190000-
SOUTHEAST ILLINOIS

CITY           SKY/WX    TMP DP  RH WIND       PRES   REMARKS
LAWRENCEVILLE  CLEAR     65  48  54 S10       30.16F
FLORA*         CLEAR     67  48  50 S7        30.14F
FAIRFIELD*     CLEAR     67  46  47 S5        30.14S
HARRISBURG*    CLEAR     68  47  47 S7        30.16F
ROBINSON*      CLEAR     64  45  49 S7        30.16S
CARMI*         CLEAR     66  47  51 S8        30.15F
$$

ABBREVIATIONS USED IN REMARKS
   TC - TEMPERATURE IN CELSIUS
  WCI - WIND CHILL INDEX
   HX - HEAT INDEX
  VSB - VISIBILITY
$$





USA.gov is the U.S. government's official web portal to all federal, state and local government web resources and services.